Regional Weather Roundup
Issued by NWS

Home | Current Version | Previous Version | Text Only | Print | Product List | Glossary Off
Versions: 1 2 3 4 5 6 7 8 9 10 11 12 13 14 15 16 17 18 19 20 21 22 23 24 25 26 27 28 29 30 31 32 33 34 35 36 37 38 39 40 41 42 43 44 45 46 47 48 49 50

000
ASUS45 KPSR 011410
RWRAZ

ARIZONA REGIONAL HOURLY WEATHER ROUNDUP
NATIONAL WEATHER SERVICE PHOENIX AZ
700 AM MST SUN FEB 01 2015

NOTE: FAIR INDICATES FEW OR NO CLOUDS BELOW 12,000 FEET WITH NO
SIGNIFICANT WEATHER AND/OR OBSTRUCTIONS TO VISIBILITY.

AZZ001>003-036-011500-
NORTHWEST ARIZONA

CITY           SKY/WX    TMP DP  RH WIND       PRES   REMARKS
BULLHEAD CITY  CLEAR     57  36  44 N18G25    30.09R
KINGMAN        CLEAR     40  36  86 E8        30.14R WCI  34
$$

AZZ004>008-015-016-018-011500-
NORTH CENTRAL ARIZONA

CITY           SKY/WX    TMP DP  RH WIND       PRES   REMARKS
GRAND CANYON   CLEAR     20  17  88 CALM      30.17R
PRESCOTT       CLEAR     31  28  89 W3        30.13R
FLAGSTAFF      CLEAR     32  26  78 E8        30.13R WCI  25
PAYSON         CLEAR     39  32  75 NE6       30.10R WCI  35
$$

AZZ009>014-017-011500-
NORTHEAST ARIZONA

CITY           SKY/WX    TMP DP  RH WIND       PRES   REMARKS
WINSLOW        CLEAR     31  29  92 W3        30.14R
SAINT JOHNS    CLEAR     33  31  92 W3        30.11R
WINDOW ROCK    CLEAR     29  21  72 N7        30.10R WCI  22
SHOW LOW       CLOUDY    32  28  86 NE8       30.13R WCI  25
$$

AZZ023-011500-
GREATER PHOENIX AREA

CITY           SKY/WX    TMP DP  RH WIND       PRES   REMARKS
PHOENIX        FOG       51  51 100 CALM      30.02R VSB 1/4
BUCKEYE          N/A     45  45 100 SE5       30.05R VSB<1/4
GLENDALE       FOG       46  46 100 CALM      30.04  VSB 1/4
LUKE AFB       FOG       47  47  99 NE3       30.03R VSB 1/4
DEER VALLEY    FOG       48  48 100 CALM      30.03R VSB 1/4
SCOTTSDALE     CLEAR     48  46  93 CALM      30.04R
MESA-FALCON    PTCLDY    46  48 100 CALM      30.02R
MESA-GATEWAY   FOG       48  48 100 CALM      30.05R VSB 1/4
CHANDLER         N/A     48  48 100 CALM      30.04R
$$

AZZ027-028-011500-
SOUTHWEST MARICOPA COUNTY AND PINAL COUNTY

CITY           SKY/WX    TMP DP  RH WIND       PRES   REMARKS
CASA GRANDE    CLOUDY    45  43  93 CALM      30.05R
GILA BEND      FAIR      46  46 100 SE3       30.04R
$$

AZZ503-504-507>509-011500-
SOUTHEAST ARIZONA

CITY           SKY/WX    TMP DP  RH WIND       PRES   REMARKS
TUCSON         FOG       49  48  97 CALM      30.05S VSB 1/8
DAVIS-MONTHAN  FOG       48  48 100 NE2       30.03S VSB 1/2
RYAN FIELD     FOG       48  48 100 CALM      30.05R VSB 1/2
NOGALES        PTCLDY    37  35  92 NE3       30.05R
SIERRA VISTA   CLOUDY    41  39  93 W5        30.06R
DOUGLAS        PTCLDY    34  33  96 SE6       30.06R WCI  29
SAFFORD        FOG       46  45  96 N3        30.04R VSB 1
$$

AZZ020-021-025-026-031-011500-
SOUTHWEST ARIZONA

CITY           SKY/WX    TMP DP  RH WIND       PRES   REMARKS
YUMA           CLEAR     53  49  86 NE5       30.03R
$$

CAZ031-033-041-043-047-048-061-011500-
SOUTHERN CALIFORNIA

CITY           SKY/WX    TMP DP  RH WIND       PRES   REMARKS
DOWNTOWN L.A.  CLEAR     51  46  83 CALM      30.04R
L.A. AIRPORT   CLEAR     52  49  89 E3        30.05R
SAN DIEGO      CLEAR     55  49  80 CALM      30.06S
BURBANK        CLEAR     49  39  68 CALM      30.05R
ONTARIO        CLEAR     50  42  74 NE8       30.05R
RIVERSIDE      CLEAR     49  41  74 NE3       30.06R
PALM SPRINGS   CLEAR     57  38  48 NW12      30.06R
EL CENTRO NAS  CLEAR     50  41  71 W9        30.03R
IMPERIAL       CLEAR     50  42  74 SW5       30.03R
BLYTHE         CLEAR     50  47  89 NE3       30.05R
NEEDLES        CLEAR     55  35  47 N8        30.09R
$$

NVZ020-UTZ003-011500-
SOUTHERN NEVADA-UTAH

CITY           SKY/WX    TMP DP  RH WIND       PRES   REMARKS
LAS VEGAS      CLEAR     45  37  73 SW8       30.12R
SALT LAKE CITY PTCLDY    28  24  85 SE7       30.21R WCI  21
$$

NMZ009-TXZ055-011500-
NEW MEXICO-WEST TEXAS

CITY           SKY/WX    TMP DP  RH WIND       PRES   REMARKS
ALBUQUERQUE    PTCLDY    33  29  85 CALM      30.08R
EL PASO        PTCLDY    44  39  82 S8        30.00R
$$


........................KEY........................
SKY/WX - SKY CONDITION/WEATHER
TMP    - TEMPERATURE IN FAHRENHEIT
DP     - DEW POINT IN FAHRENHEIT
RH     - RELATIVE HUMIDITY IN PERCENT
WIND   - DIRECTION AND SPEED IN MILES PER HOUR (MPH)
VRB    - VARIABLE WIND DIRECTION
PRES   - MEAN SEA LEVEL PRESSURE IN INCHES OF MERCURY
         F - FALLING PRESSURE   R - RISING PRESSURE
         S - STEADY PRESSURE
VSB    - VISIBILITY IN MILES
HX     - HEAT INDEX IN FAHRENHEIT
WCI    - WIND CHILL INDEX IN FAHRENHEIT
TC     - TEMPERATURE IN CELSIUS WHICH IS ALSO KNOWN AS
         TEMPERATURE IN CENTIGRADE
AFB    - AIR FORCE BASE
         LUKE AFB IS LUKE AIR FORCE BASE
         DAVIS-MONTHAN IS DAVIS-MONTHAN AIR FORCE BASE
NAS    - NAVAL AIR STATION
         EL CENTRO NAS IS EL CENTRO NAVAL AIR STATION
N/A    - NOT AVAILABLE



USA.gov is the U.S. government's official web portal to all federal, state and local government web resources and services.